Regional Weather Roundup
Issued by NWS

Home | Current Version | Previous Version | Text Only | Print | Product List | Glossary On
Versions: 1 2 3 4 5 6 7 8 9 10 11 12 13 14 15 16 17 18 19 20 21 22 23 24 25 26 27 28 29 30 31 32 33 34 35 36 37 38 39 40 41 42 43 44 45 46 47 48 49 50
000
ASUS43 KMPX 082201
RWRMN
WEATHER ROUNDUP FOR MINNESOTA
NATIONAL WEATHER SERVICE TWIN CITIES/CHANHASSEN MN
400 PM CST THU DEC 08 2016


NOTE: "FAIR" INDICATES FEW OR NO CLOUDS BELOW 12,000 FEET WITH NO
SIGNIFICANT WEATHER AND/OR OBSTRUCTIONS TO VISIBILITY. N/A MEANS
CURRENT SKY AND/OR WEATHER CONDITIONS ARE NOT AVAILABLE.

MNZ060>063-068>070-082300-
   Twin Cities Metro

CITY           SKY/WX    TMP DP  RH WIND       PRES   REMARKS
TWIN CITIES    CLOUDY    22  11  62 NW17      30.44R WCI   8
ST PAUL        CLOUDY    23  14  68 NW14      30.45R WCI  11
CRYSTAL        CLOUDY    22  10  60 NW13      30.43R WCI  10
BLAINE         FLURRIES  25  16  68 NW14G20   30.42R WCI  13
LAKEVILLE      LGT SNOW  19  18  93 NW10      30.43R WCI   8
EDEN PRAIRIE   LGT SNOW  22  14  71 NW12      30.43R WCI  10
SOUTH ST PAUL  FLURRIES  23  13  65 NW10      30.43R WCI  12
LAKE ELMO      CLOUDY    23  16  74 NW13G18   30.42R WCI  11
$$
MNZ001>005-007-008-013>017-022>024-027-028-082300-
   Northwest Minnesota

CITY           SKY/WX    TMP DP  RH WIND       PRES   REMARKS
BEMIDJI        LGT SNOW  17  12  82 NW13      30.43R WCI   3
HALLOCK        CLOUDY    14   9  79 NW14      30.56R WCI  -1
ROSEAU         FLURRIES  16  10  79 W9        30.48R WCI   4
WARROAD        FLURRIES  16  10  79 NW9       30.47S WCI   4
THIEF RVR FALL FLURRIES  13   9  84 NW14      30.52R WCI  -2
CROOKSTON      LGT SNOW  12  10  92 NW15      30.56R WCI  -4
FOSSTON        LGT SNOW  12  10  92 NW12      30.49R WCI  -2
DETROIT LAKES  LGT SNOW  14  12  92 NW15      30.49R WCI  -1
MOORHEAD       MIX PCPN  12   9  85 NW14      30.57R WCI  -3
PARK RAPIDS    CLOUDY    16   7  67 NW12      30.43R WCI   3
$$
MNZ006-009>011-018-025>026-082300-
   North Central Minnesota

CITY           SKY/WX    TMP DP  RH WIND       PRES   REMARKS
BAUDETTE       CLOUDY    17   7  64 NW15      30.43R WCI   2
FLAG ISLAND    CLOUDY    16  10  79 NW21      30.46R WCI  -2
INTL FALLS     CLOUDY    17  10  74 NW9       30.38R WCI   6
WASKISH        MOCLDY    18  10  73 NW10      30.44R WCI   6
BIG FORK       FLURRIES  19  12  73 NW3       30.38R
LONGVILLE      CLOUDY    19  12  73 NW8       30.40R WCI   9
GRAND RAPIDS   FLURRIES  21  12  68 NW10      30.38R WCI  10
CRANE LAKE     MOCLDY    18  12  79 N5        30.37R WCI  11
ORR            CLOUDY    18  10  73 CALM      30.32R
COOK           PTCLDY    18  10  73 NW12      30.34R WCI   5
$$
MNZ012-019>021-037-082300-
   Northeast Minnesota

CITY           SKY/WX    TMP DP  RH WIND       PRES   REMARKS
DULUTH         MOCLDY    22  12  65 NW12G25   30.30R WCI  10
ELY            FLURRIES  18  12  79 N6        30.30R WCI   9
HIBBING        CLOUDY    19  10  68 NW18      30.33R WCI   4
EVELETH        MOCLDY    22  12  67 NW14G21   30.33R WCI   9
DULUTH HARBOR  CLOUDY    27  16  63 W5        30.37R WCI  21
TWO HARBORS    CLEAR     25  16  68 NW3       30.28R
SILVER BAY     LGT SNOW  23  16  74 N5        30.27R WCI  17
GRAND MARAIS     N/A     22  11  62 VRB3      30.31R
G MARAIS ARPRT FLURRIES  14   7  73 NW9G17    30.21R WCI   2
$$
MNZ029>031-032-039>041-046>048-054>057-064-082300-
   West Central Minnesota

CITY           SKY/WX    TMP DP  RH WIND       PRES   REMARKS
FERGUS FALLS   LGT SNOW  12   9  85 NW17      30.57R WCI  -5
WHEATON        FLURRIES  14  10  85 W16       30.59R WCI  -2
MORRIS         CLOUDY    12   9  85 NW17G24   30.52R WCI  -5
ALEXANDRIA     LGT SNOW  14   9  80 NW16      30.47R WCI  -2
ELBOW LAKE     LGT SNOW  12   9  86 W16       30.53R WCI  -5
WADENA         FLURRIES  14   9  79 W8        30.46R WCI   3
GLENWOOD       FLURRIES  12   9  85 W15G21    30.48R WCI  -4
APPLETON       FLURRIES  16   9  73 NW17      30.55R WCI   0
BENSON         FLURRIES  16   9  73 N16G24    30.53R WCI   0
ORTONVILLE     CLOUDY    14   7  73 NW15G22   30.55R WCI  -1
MADISON        MOCLDY    18  10  73 NW15G22   30.56R WCI   3
WILLMAR        LGT SNOW  16  10  79 NW18      30.51R WCI  -1
$$
MNZ033>034-036-042>043-049>051-058-059-082300-
   Central Minnesota

CITY           SKY/WX    TMP DP  RH WIND       PRES   REMARKS
ST CLOUD       CLOUDY    19  11  70 NW16      30.44R WCI   4
PAYNESVILLE    FLURRIES  17  10  76 NW14G21   30.47R WCI   3
AITKIN         MIX PCPN  23  12  63 NW6       30.39R WCI  16
PINE RIVER     CLOUDY    19  12  73 W7        30.44R WCI  10
BRAINERD       CLOUDY    20  12  71 NW10      30.42R WCI   9
STAPLES        FLURRIES  16  10  79 NW10      30.44R WCI   3
LONG PRAIRIE   FLURRIES  16  10  79 W15G22    30.45R WCI   1
LITTLE FALLS   CLOUDY    19  10  68 W12       30.45R WCI   7
LITCHFIELD     CLOUDY    18  10  73 NW16G22   30.47R WCI   3
BUFFALO        CLOUDY    21  11  66 NW9G16    30.46R WCI  11
MAPLE LAKE     FLURRIES  21  14  73 NW10G16   30.45R WCI  10
HUTCHINSON     FLURRIES  19  11  72 NW17G26   30.48R WCI   4
$$
MNZ037-044-045-052-053-082300-
   East Central Minnesota

CITY           SKY/WX    TMP DP  RH WIND       PRES   REMARKS
PRINCETON      FLURRIES  21  12  68 W13       30.42R WCI   9
MORA           MOCLDY    23  14  68 NW12      30.42R WCI  12
CAMBRIDGE      CLOUDY    25  12  58 W10       30.40R WCI  15
RUSH CITY      CLOUDY    23  14  68 NW13G21   30.41R WCI  11
MOOSE LAKE     CLOUDY    23  14  68 NW9       30.36R WCI  13
HINCKLEY       FLURRIES  23  18  80 NW9       30.39R WCI  13
CLOQUET        PTCLDY    21  10  63 NW15G22   30.33R WCI   8
MCGREGOR       CLOUDY    23  16  74 NW7       30.39R WCI  15
$$
MNZ071>073-080-081-089-090-097-098-082300-
   Southwest Minnesota

CITY           SKY/WX    TMP DP  RH WIND       PRES   REMARKS
MONTEVIDEO     FLURRIES  16   9  73 N16       30.55R WCI   0
GRANITE FALLS  PTCLDY    18  11  74 NW20G25   30.55R WCI   1
CANBY          PTCLDY    18   9  69 NW14G20   30.56R WCI   4
MARSHALL       CLEAR     17   9  70 NW20      30.53R WCI   1
REDWOOD FALLS  MOCLDY    17   8  67 NW17G23   30.51R WCI   1
OLIVIA         LGT SNOW  18  12  79 NW18G24   30.50R WCI   2
PIPESTONE      PTCLDY    18   9  68 N15G22    30.51R WCI   3
WINDOM         PTCLDY    18  10  73 NW15G29   30.49R WCI   3
WORTHINGTON    CLEAR     17  10  74 NW21      30.50R WCI   0
JACKSON        PTCLDY    18   9  68 NW17G28   30.49R WCI   2
TRACY          MOCLDY    18  11  73 NW18      30.51R WCI   3
SLAYTON        PTCLDY    17  10  74 NW21      30.49R WCI  -1
$$
MNZ065>067-074>077-082>085-091>093-082300-
   South Central Minnesota

CITY           SKY/WX    TMP DP  RH WIND       PRES   REMARKS
MANKATO        FLURRIES  17  12  80 NW22      30.48R WCI   0
NEW ULM        LGT SNOW  16  10  79 NW23G29   30.49R WCI  -2
ST JAMES       FLURRIES  18  10  73 NW20G26   30.50R WCI   1
FAIRMONT       FLURRIES  19  11  70 NW26      30.49R WCI   1
GLENCOE        CLOUDY    20  14  78 NW20      30.46R WCI   5
OWATONNA       FLURRIES  19  12  73 W17G23    30.43R WCI   4
WASECA         LGT SNOW  19  14  79 NW17      30.47R WCI   4
ALBERT LEA     FLURRIES  21  16  79 NW12G22   30.44R WCI   9
$$
MNZ078>079-086>088-094>096-082300-
   Southeast Minnesota

CITY           SKY/WX    TMP DP  RH WIND       PRES   REMARKS
ROCHESTER      FLURRIES  20  15  81 NW20      30.38R WCI   4
RED WING       LGT SNOW  25  18  74 NW9       30.41R WCI  15
STANTON        FLURRIES  23  16  73 NW14      30.42R WCI  11
DODGE CENTER   FLURRIES  19  16  86 NW14G21   30.40R WCI   6
WINONA           N/A     27  18  69 NW10      30.40R WCI  17
AUSTIN         LGT SNOW  18  12  79 NW18      30.42R WCI   2
PRESTON        FLURRIES  19  14  79 NW16G23   30.39R WCI   5
$$
ABBREVIATIONS USED IN REMARKS
   TC - TEMPERATURES IN CELSIUS
  WCI - WIND CHILL INDEX
   HX - HEAT INDEX
  VSB - VISIBILITY
$$



USA.gov is the U.S. government's official web portal to all federal, state and local government web resources and services.